Weather History for Macomb, IL

Change the Weather History Date:

Saturday, October 19, 2013

  Actual Average (KBRL) Record (KBRL)
Temperature  
Mean Temperature 48 °F 54 °F  
Max Temperature 59 °F 65 °F 85 °F (1953)
Min Temperature 37 °F 44 °F 18 °F (1972)
Degree Days  
Heating Degree Days 18 11  
Month to date heating degree days 162  
Since 1 July heating degree days 233  
Cooling Degree Days 0 0  
Month to date cooling degree days 19  
Year to date cooling degree days 1201  
Moisture  
Dew Point 37 °F    
Average Humidity 70    
Maximum Humidity 96    
Minimum Humidity 37    
Precipitation  
Precipitation 0.01 in 0.10 in 1.95 in (1962)
Month to date precipitation 1.98  
Year to date precipitation 32.75  
Sea Level Pressure  
Sea Level Pressure 29.93 in    
Wind  
Wind Speed 8 mph (SW)    
Max Wind Speed 18 mph    
Max Gust Speed 24 mph    
Visibility 10 miles    
Events Rain    
T = Trace of Precipitation, MM = Missing Value Source: NWS Daily Summary

Daily Weather History Graph

Daily Weather History Graph

Search for Another Location

Airport:

Trip Planner

Search our weather history database for the weather conditions in past years. The results will help you decide how hot, cold, wet, or windy it might be!

Date:

Astronomy

Oct. 19, 2013 Rise Set
Actual Time 7:18 AM CDT 6:16 PM CDT
Civil Twilight 6:50 AM CDT 6:43 PM CDT
Nautical Twilight 6:18 AM CDT 7:15 PM CDT
Astronomical Twilight 5:47 AM CDT 7:47 PM CDT
Moon 6:43 PM CDT (10/19) 7:56 AM CDT (10/19)
Length of Visible Light 11h 53m
Length of Day
10h 57m
Waxing Gibbous, 99% of the Moon is Illuminated
Oct 19
Waxing Gibbous
Oct 26
Last Quarter
Nov 3
New
Nov 9
First Quarter
Nov 17
Full

Hourly Weather History & Observations

Time (CDT) Temp. Windchill Dew Point Humidity Pressure Visibility Wind Dir Wind Speed Gust Speed Precip Events Conditions
12:15 AM 43.7 °F 39.7 °F 41.5 °F 92% 30.01 in 10.0 mi West 6.9 mph - N/A Rain Light Rain
12:35 AM 43.7 °F 39.1 °F 41.5 °F 92% 30.01 in 10.0 mi West 8.1 mph - N/A Rain Light Rain
12:55 AM 43.7 °F 40.3 °F 41.5 °F 92% 30.00 in 10.0 mi West 5.8 mph - N/A Rain Light Rain
1:15 AM 43.7 °F 41.1 °F 41.9 °F 93% 30.00 in 10.0 mi SW 4.6 mph - N/A Rain Light Rain
1:35 AM 43.7 °F 41.1 °F 41.9 °F 93% 29.99 in 10.0 mi WSW 4.6 mph - 0.01 in   Overcast
1:55 AM 43.5 °F 41.9 °F 41.7 °F 93% 29.99 in 10.0 mi WSW 3.5 mph - 0.01 in   Overcast
2:15 AM 43.2 °F 39.7 °F 41.4 °F 93% 29.98 in 10.0 mi WSW 5.8 mph - N/A   Overcast
2:35 AM 43.0 °F 39.5 °F 41.2 °F 93% 29.98 in 10.0 mi SW 5.8 mph - N/A   Overcast
2:55 AM 42.8 °F 38.6 °F 41.0 °F 93% 29.97 in 10.0 mi SW 6.9 mph - N/A   Overcast
3:15 AM 42.8 °F 38.0 °F 40.6 °F 92% 29.97 in 10.0 mi WSW 8.1 mph - N/A   Overcast
3:35 AM 42.4 °F 37.0 °F 40.5 °F 93% 29.97 in 10.0 mi WSW 9.2 mph - N/A   Overcast
3:55 AM 42.3 °F 37.3 °F 40.3 °F 93% 29.96 in 10.0 mi WSW 8.1 mph - N/A   Mostly Cloudy
4:15 AM 41.9 °F 36.9 °F 40.1 °F 93% 29.96 in 10.0 mi WSW 8.1 mph - N/A   Mostly Cloudy
4:35 AM 41.4 °F 36.8 °F 39.6 °F 93% 29.97 in 10.0 mi WSW 6.9 mph - N/A   Scattered Clouds
4:55 AM 41.0 °F 37.1 °F 39.2 °F 93% 29.96 in 10.0 mi SW 5.8 mph - N/A   Clear
5:15 AM 40.1 °F 36.1 °F 38.5 °F 94% 29.96 in 10.0 mi WSW 5.8 mph - N/A   Clear
5:35 AM 39.4 °F 34.5 °F 37.9 °F 95% 29.96 in 10.0 mi WSW 6.9 mph - N/A   Clear
5:55 AM 39.2 °F 34.2 °F 37.9 °F 95% 29.96 in 10.0 mi WSW 6.9 mph - N/A   Clear
6:15 AM 38.8 °F 33.8 °F 37.6 °F 95% 29.96 in 10.0 mi WSW 6.9 mph - N/A   Clear
6:35 AM 38.5 °F 33.4 °F 37.4 °F 96% 29.96 in 10.0 mi WSW 6.9 mph - N/A   Clear
6:55 AM 38.3 °F 33.2 °F 36.9 °F 95% 29.96 in 10.0 mi SW 6.9 mph - N/A   Clear
7:15 AM 37.8 °F 32.5 °F 36.5 °F 95% 29.96 in 10.0 mi SW 6.9 mph - N/A   Scattered Clouds
7:35 AM 37.8 °F 32.5 °F 36.7 °F 96% 29.96 in 10.0 mi SW 6.9 mph - N/A   Scattered Clouds
7:55 AM 38.3 °F 32.5 °F 36.9 °F 95% 29.97 in 10.0 mi SW 8.1 mph - N/A   Clear
8:15 AM 39.7 °F 33.7 °F 38.1 °F 94% 29.96 in 10.0 mi SW 9.2 mph - N/A   Scattered Clouds
8:35 AM 40.1 °F 33.2 °F 37.4 °F 90% 29.97 in 10.0 mi WSW 11.5 mph - N/A   Mostly Cloudy
8:55 AM 40.5 °F 34.6 °F 37.8 °F 90% 29.97 in 10.0 mi WSW 9.2 mph - N/A   Mostly Cloudy
9:15 AM 40.3 °F 33.0 °F 37.4 °F 89% 29.97 in 10.0 mi WSW 12.7 mph - N/A   Mostly Cloudy
9:35 AM 42.6 °F 36.8 °F 38.7 °F 86% 29.96 in 10.0 mi WSW 10.4 mph 16.1 mph N/A   Scattered Clouds
9:55 AM 44.6 °F 39.2 °F 39.4 °F 82% 29.96 in 10.0 mi WSW 10.4 mph 16.1 mph N/A   Scattered Clouds
10:15 AM 45.5 °F 39.6 °F 39.0 °F 78% 29.96 in 10.0 mi WSW 12.7 mph 17.3 mph N/A   Scattered Clouds
10:35 AM 47.3 °F - 39.2 °F 73% 29.96 in 10.0 mi WSW 11.5 mph 17.3 mph N/A   Scattered Clouds
10:55 AM 48.2 °F - 38.8 °F 70% 29.96 in 10.0 mi WSW 11.5 mph 17.3 mph N/A   Clear
11:15 AM 49.3 °F - 39.0 °F 68% 29.95 in 10.0 mi West 11.5 mph 17.3 mph N/A   Scattered Clouds
11:35 AM 50.5 °F - 38.8 °F 64% 29.95 in 10.0 mi West 11.5 mph 17.3 mph N/A   Scattered Clouds
11:55 AM 51.8 °F - 38.7 °F 61% 29.94 in 10.0 mi WSW 9.2 mph 17.3 mph N/A   Scattered Clouds
1:15 PM 54.1 °F - 37.9 °F 54% 29.92 in 10.0 mi WSW 11.5 mph 17.3 mph N/A   Clear
1:55 PM 56.3 °F - 36.3 °F 47% 29.90 in 10.0 mi WSW 12.7 mph 18.4 mph N/A   Scattered Clouds
2:15 PM 56.8 °F - 36.1 °F 46% 29.90 in 10.0 mi SW 15.0 mph 24.2 mph N/A   Scattered Clouds
2:35 PM 57.0 °F - 34.3 °F 42% 29.89 in 10.0 mi WSW 12.7 mph - N/A   Clear
2:55 PM 57.6 °F - 33.4 °F 40% 29.89 in 10.0 mi SW 11.5 mph 18.4 mph N/A   Scattered Clouds
3:15 PM 58.3 °F - 32.9 °F 38% 29.88 in 10.0 mi WSW 18.4 mph - N/A   Scattered Clouds
3:35 PM 58.6 °F - 32.7 °F 38% 29.88 in 10.0 mi WSW 16.1 mph 23.0 mph N/A   Clear
3:55 PM 58.3 °F - 32.5 °F 38% 29.87 in 10.0 mi WSW 12.7 mph 24.2 mph N/A   Clear
4:15 PM 58.8 °F - 32.5 °F 37% 29.87 in 10.0 mi SW 15.0 mph 24.2 mph N/A   Clear
4:35 PM 58.6 °F - 32.2 °F 37% 29.87 in 10.0 mi WSW 13.8 mph 20.7 mph N/A   Clear
4:55 PM 58.3 °F - 32.2 °F 37% 29.87 in 10.0 mi WSW 16.1 mph 23.0 mph N/A   Scattered Clouds
5:15 PM 57.7 °F - 32.2 °F 38% 29.87 in 10.0 mi WSW 13.8 mph 18.4 mph N/A   Clear
5:35 PM 57.2 °F - 32.4 °F 39% 29.87 in 10.0 mi WSW 12.7 mph 19.6 mph N/A   Scattered Clouds
5:55 PM 56.1 °F - 33.3 °F 42% 29.87 in 10.0 mi SW 8.1 mph - N/A   Clear
6:15 PM 54.7 °F - 34.2 °F 46% 29.88 in 10.0 mi SW 9.2 mph - N/A   Clear
6:35 PM 53.4 °F - 34.7 °F 49% 29.88 in 10.0 mi SW 8.1 mph - N/A   Scattered Clouds
6:55 PM 53.8 °F - 35.6 °F 50% 29.88 in 10.0 mi SW 6.9 mph - N/A   Mostly Cloudy
7:15 PM 53.8 °F - 36.0 °F 51% 29.88 in 10.0 mi SW 6.9 mph - N/A   Overcast
7:35 PM 54.1 °F - 36.5 °F 51% 29.89 in 10.0 mi SSW 6.9 mph - N/A   Overcast
7:55 PM 54.3 °F - 36.5 °F 51% 29.88 in 10.0 mi SSW 8.1 mph - N/A   Overcast
8:15 PM 54.5 °F - 36.5 °F 51% 29.88 in 10.0 mi SW 8.1 mph - N/A   Overcast
8:35 PM 54.5 °F - 36.7 °F 51% 29.88 in 10.0 mi SSW 9.2 mph - N/A   Overcast
8:55 PM 54.1 °F - 36.7 °F 52% 29.88 in 10.0 mi SSW 10.4 mph - N/A   Overcast
9:15 PM 54.0 °F - 36.9 °F 52% 29.89 in 10.0 mi SSW 8.1 mph - N/A   Overcast
9:35 PM 54.3 °F - 36.9 °F 52% 29.89 in 10.0 mi SW 10.4 mph - N/A   Overcast
9:55 PM 54.1 °F - 37.0 °F 52% 29.89 in 10.0 mi SW 9.2 mph - N/A   Overcast
10:15 PM 53.4 °F - 37.0 °F 54% 29.90 in 10.0 mi SW 10.4 mph - N/A   Overcast
10:35 PM 52.2 °F - 37.4 °F 57% 29.90 in 10.0 mi WSW 10.4 mph - N/A   Mostly Cloudy
10:55 PM 50.9 °F - 37.6 °F 60% 29.90 in 10.0 mi WSW 6.9 mph - N/A   Clear
11:15 PM 49.6 °F - 37.8 °F 64% 29.90 in 10.0 mi WSW 6.9 mph - N/A   Clear
11:35 PM 48.2 °F - 37.9 °F 68% 29.90 in 10.0 mi SW 6.9 mph - N/A   Clear
11:55 PM 47.7 °F - 38.3 °F 70% 29.90 in 10.0 mi SW 6.9 mph - N/A   Clear